Wetbulb
54.53 55.18 54.99 56.40 56.02 56.04 55.37 54.93 55.64 56.32 56.42 57.01 57.15 57.72 58.17 58.58 58.97 56.59 51.88 56.37 53.83 59.05 56.48 52.26 52.36 51.67 47.65 44.97 45.87 43.49 35.26 31.70 35.01 35.69 37.86 41.07 39.75 43.12 44.21 43.74 43.86 47.13 46.35 48.08 53.36
53.46 54.62 54.39 54.81 55.06 55.79 56.03 55.10 54.72 55.47 55.58 56.16 56.42 56.72 57.08 57.12 54.28 52.20 57.88 61.53 60.13 58.72 47.89 49.52 48.65 48.99 43.22 43.30 42.75 39.33 33.73 35.50 39.26 39.25 37.74 40.15 40.34 40.63 41.29 41.49 42.45 45.69 50.36 52.68 54.81
53.86 53.65 54.20 53.96 53.90 54.61 55.62 55.86 54.66 54.72 55.07 55.04 55.34 55.53 55.47 54.20 48.73 49.07 59.73 61.21 60.38 59.95 50.67 49.83 50.28 46.85 40.89 41.66 40.99 39.04 35.40 38.96 40.52 41.87 41.99 41.12 41.57 40.99 39.55 39.39 42.61 43.88 48.87 51.19 52.35
54.79 53.96 53.28 53.18 52.65 54.15 54.69 55.21 55.52 54.82 54.55 54.54 54.43 54.94 55.26 50.22 30.79 50.23 59.69 60.16 60.60 57.93 51.46 46.34 45.22 42.09 39.75 38.86 41.96 36.46 40.93 41.30 42.18 42.87 41.68 39.58 40.85 40.62 39.37 40.82 43.14 44.34 50.33 50.17 50.98
54.45 54.42 53.71 52.87 52.00 52.58 54.25 54.08 55.09 54.90 54.99 54.33 54.43 54.00 48.75 43.19 44.97 53.56 58.40 57.91 54.90 54.63 47.03 43.74 41.93 41.88 38.36 39.27 40.34 37.34 39.72 42.17 43.03 43.40 41.67 41.82 40.36 40.02 40.95 43.26 43.22 45.37 48.56 49.80 50.31
54.06 54.05 54.08 53.02 51.95 51.67 53.44 53.81 53.91 54.91 54.73 54.54 53.97 53.39 45.13 35.10 50.00 53.00 54.23 52.91 51.77 49.82 45.88 44.37 42.71 43.89 41.08 40.75 39.07 40.33 41.17 41.26 42.64 42.61 42.04 40.69 39.32 41.13 42.10 41.94 43.20 45.17 46.65 48.41 49.86
54.16 53.86 53.66 53.14 52.67 51.39 51.97 53.25 52.58 53.47 54.80 54.71 54.00 50.76 44.20 38.91 48.22 49.03 48.68 50.35 51.15 49.58 46.09 46.11 44.29 40.95 41.85 38.59 41.62 40.44 36.49 38.16 39.10 40.49 40.74 40.96 37.37 38.00 44.20 43.28 43.52 43.52 43.39 46.32 48.01
53.81 53.69 53.20 53.28 52.80 52.68 52.45 52.35 52.43 52.46 53.00 54.15 54.12 46.76 38.08 48.13 47.89 47.16 47.68 47.57 50.78 51.05 49.25 49.02 47.23 43.51 41.23 42.08 40.40 36.57 34.68 30.63 36.92 40.15 40.92 40.13 32.72 39.28 41.95 41.36 41.97 42.50 43.05 42.81 45.53
53.33 53.10 53.15 53.05 52.85 52.39 52.06 52.14 51.98 52.11 52.10 52.80 49.29 43.89 36.95 49.45 44.82 46.64 47.60 45.56 48.16 48.51 48.42 50.90 46.27 40.51 39.99 34.94 31.44 32.15 25.88 28.95 34.02 39.43 39.63 37.97 32.78 40.08 41.92 40.64 40.68 40.88 41.36 41.99 42.66
52.95 52.73 53.00 52.95 52.77 52.18 52.16 51.72 51.17 50.17 49.80 50.18 48.62 40.49 41.35 39.74 44.51 46.17 47.18 46.98 45.18 45.87 44.85 42.63 40.16 35.23 33.25 31.10 24.56 26.91 28.14 30.58 30.47 36.64 36.57 34.92 35.04 38.41 40.16 39.75 40.11 40.66 40.67 41.17 41.75
51.58 52.25 52.71 52.92 52.57 51.93 49.27 46.06 41.07 37.51 42.06 38.15 38.13 38.99 39.76 43.92 46.06 44.35 46.57 44.91 45.18 41.57 35.61 38.70 33.62 30.68 33.03 34.00 32.33 31.00 29.93 29.07 32.83 37.77 35.99 33.42 34.45 36.83 40.74 38.98 38.59 39.13 39.80 40.55 41.98
49.65 50.57 51.83 52.46 52.17 51.79 47.93 40.99 38.59 38.75 33.46 40.17 40.38 42.05 42.73 43.54 37.90 42.39 47.02 39.58 39.82 35.14 38.23 35.91 31.25 34.95 36.33 35.23 33.25 31.37 27.69 27.00 32.65 36.99 35.07 33.46 33.58 37.10 39.02 39.39 41.21 41.78 42.39 41.64 41.36
49.45 49.12 49.79 52.14 52.08 49.81 44.86 41.67 45.27 43.96 32.01 35.25 38.99 38.79 40.47 43.03 37.08 38.59 43.34 39.84 36.51 34.10 34.45 31.48 31.63 37.27 35.83 33.51 31.35 30.38 29.54 29.01 29.44 33.82 35.24 32.48 32.08 34.06 37.88 40.06 40.84 41.28 42.53 43.38 42.75
47.34 48.62 48.57 50.16 47.70 47.12 42.44 45.48 46.13 44.77 27.95 27.66 34.58 36.24 40.37 42.04 35.99 42.04 44.66 39.55 36.64 32.22 33.95 32.01 36.13 33.30 32.62 32.43 33.73 28.79 33.16 32.89 31.72 29.26 23.12 31.89 23.23 32.14 34.56 37.95 39.92 41.19 41.51 42.05 44.01
46.79 47.30 48.04 47.39 45.62 43.63 44.77 46.77 46.22 41.59 14.49 29.42 33.80 42.32 40.23 36.20 35.58 36.57 42.19 39.65 33.58 32.93 33.26 28.65 31.15 31.27 30.07 31.10 35.41 31.52 35.81 33.03 31.79 28.07 25.72 27.87 23.62 27.26 34.18 34.28 38.31 40.06 41.52 42.79 43.97
46.53 46.94 47.59 45.85 44.56 46.35 46.51 46.10 42.42 24.40 14.50 25.69 34.02 33.10 33.06 35.40 33.58 36.21 36.13 38.38 37.72 35.43 33.56 31.07 34.87 33.93 32.49 34.35 35.65 35.79 33.30 32.01 30.83 30.60 23.76 27.76 26.71 24.57 30.97 34.29 35.67 38.94 41.02 42.50 43.05
45.68 46.43 45.26 45.22 39.02 47.19 46.08 40.82 24.71 17.35 27.72 24.52 27.84 31.97 30.40 30.36 31.94 31.62 30.86 30.61 28.51 25.19 25.43 30.06 30.72 33.44 34.63 30.25 33.19 32.68 28.33 21.84 17.49 21.76 20.27 27.72 25.65 29.14 33.50 36.95 37.67 37.87 38.96 39.72 41.10
44.64 45.52 44.74 44.61 44.88 46.49 42.58 30.80 18.37 23.89 21.24 29.27 28.88 30.18 26.14 28.76 29.65 30.21 28.65 27.34 31.03 28.85 22.94 21.17 16.19 29.57 33.79 31.85 28.38 29.96 29.41 21.16 13.93 16.90 20.06 27.54 23.14 29.54 36.19 40.08 40.26 39.74 40.30 40.01 39.04
44.01 41.10 40.47 42.00 44.52 45.23 34.95 22.80 22.15 24.41 26.77 27.47 28.30 25.28 25.30 28.55 27.36 28.36 27.08 26.60 29.34 30.49 22.66 21.74 21.90 30.00 32.27 34.44 33.79 28.35 25.65 32.31 23.97 17.50 20.47 21.97 27.28 33.49 35.35 36.69 38.36 39.20 40.01 38.13 40.48
37.62 37.66 36.45 43.46 44.52 41.63 30.17 25.38 25.50 28.57 29.52 30.17 22.90 23.95 19.58 24.57 24.13 25.70 25.02 28.87 29.06 32.33 31.70 26.49 20.97 28.21 30.37 32.29 32.40 31.08 32.92 24.34 25.98 16.88 14.71 20.17 22.16 23.66 29.20 33.37 36.96 37.93 39.51 40.74 39.19
36.68 30.60 36.17 43.81 43.50 32.10 25.22 26.37 27.36 30.83 31.90 28.34 23.94 19.18 23.52 21.95 23.79 24.39 24.63 27.93 31.38 30.41 33.01 29.57 25.56 23.95 28.26 26.15 25.29 26.66 26.51 27.73 27.45 24.91 18.55 16.85 21.35 31.47 32.34 33.97 33.76 35.42 37.07 38.75 41.29
32.46 25.78 39.10 43.11 29.32 30.72 26.95 26.95 31.08 28.98 31.52 28.51 27.74 25.68 24.76 25.09 22.04 20.75 22.80 26.61 31.83 31.28 27.83 30.27 26.68 21.27 22.94 27.85 30.88 30.12 28.10 28.46 22.58 20.46 23.85 23.75 23.05 34.82 32.88 34.08 33.74 35.35 36.58 36.24 37.25
29.46 29.11 40.77 39.82 24.11 26.37 27.17 27.23 28.62 28.41 27.77 27.11 25.94 27.58 25.96 23.26 17.57 24.41 25.56 30.64 32.80 31.80 28.06 30.82 22.72 14.95 16.35 21.32 24.53 21.41 28.00 29.98 29.55 27.69 23.03 20.16 22.74 35.39 36.42 37.63 37.76 35.33 36.81 36.89 36.26
30.45 25.07 30.60 33.71 32.30 28.35 25.35 25.32 24.67 30.77 29.09 28.59 26.03 28.12 25.03 21.64 21.64 17.64 23.93 30.09 32.42 32.72 36.63 33.55 22.36 21.81 18.05 20.64 24.61 20.77 25.29 28.12 27.61 22.61 22.92 24.31 26.34 31.59 32.69 33.50 33.76 35.10 35.82 36.83 36.86
30.24 26.92 30.71 25.49 27.02 28.12 27.84 26.12 24.22 22.45 28.26 28.58 23.74 22.33 22.69 14.84 19.54 17.89 22.17 26.34 29.05 33.97 31.36 28.74 15.64 26.31 26.47 28.28 28.41 26.87 26.72 26.23 24.27 26.02 23.65 25.19 25.49 29.81 33.13 34.99 37.28 38.87 36.41 37.29 36.44
28.01 25.96 29.96 28.42 29.46 26.66 27.86 24.53 24.34 24.37 25.21 24.25 21.58 22.00 18.70 17.48 22.80 18.82 25.36 25.48 24.94 28.68 26.07 30.15 17.78 21.26 21.37 27.65 27.84 25.81 26.69 26.54 26.18 26.05 26.96 27.99 28.19 34.46 35.90 35.52 32.59 34.35 36.18 36.37 37.33
32.82 34.27 30.11 30.25 27.35 25.35 22.67 25.84 25.86 27.41 26.87 28.67 25.11 23.74 19.58 23.21 27.40 28.69 29.87 29.36 28.38 26.47 24.06 26.06 22.30 17.12 16.54 18.22 21.88 15.11 21.74 24.93 25.37 28.32 28.28 24.60 30.61 34.24 32.72 35.28 36.12 35.25 35.86 37.11 36.60
MSLP
1018.89 1019.00 1018.97 1018.73 1018.77 1018.85 1018.90 1018.76 1018.57 1018.67 1018.67 1018.64 1018.41 1018.24 1018.08 1017.88 1017.44 1017.20 1016.76 1015.67 1015.54 1015.54 1015.53 1015.68 1015.82 1015.79 1015.85 1016.12 1016.10 1016.53 1017.41 1017.23 1016.01 1015.16 1013.97 1013.05 1012.42 1012.03 1011.71 1011.67 1011.92 1012.47 1012.90 1013.29 1013.64
1018.66 1018.68 1018.61 1018.64 1018.51 1018.50 1018.58 1018.70 1018.62 1018.53 1018.51 1018.63 1018.60 1018.33 1018.07 1017.91 1017.69 1016.73 1015.37 1015.14 1015.29 1015.43 1015.65 1015.77 1015.82 1015.97 1016.26 1016.19 1016.23 1016.43 1017.15 1016.30 1015.05 1014.22 1013.81 1013.36 1013.11 1012.74 1012.35 1012.18 1012.55 1013.06 1013.46 1013.66 1014.04
1018.24 1018.25 1018.41 1018.31 1018.42 1018.38 1018.31 1018.27 1018.48 1018.42 1018.37 1018.39 1018.56 1018.43 1018.20 1017.89 1017.74 1015.59 1014.77 1014.85 1015.13 1015.34 1015.67 1015.74 1015.74 1015.94 1016.44 1016.35 1016.28 1016.33 1016.16 1015.50 1014.72 1014.17 1013.80 1013.62 1013.28 1013.16 1012.91 1012.73 1012.51 1012.93 1013.81 1014.25 1014.57
1017.64 1017.72 1017.90 1018.01 1018.03 1018.22 1018.21 1018.04 1018.04 1018.15 1018.15 1018.19 1018.21 1018.36 1018.17 1017.95 1017.26 1015.20 1015.02 1015.04 1014.99 1015.12 1015.76 1015.78 1015.92 1016.21 1016.30 1016.39 1015.96 1016.17 1015.56 1015.17 1014.62 1014.40 1014.08 1013.87 1013.55 1013.41 1013.28 1012.85 1012.77 1012.91 1013.26 1014.17 1014.68
1016.92 1017.10 1017.49 1017.58 1017.92 1017.96 1018.02 1017.85 1017.92 1017.77 1017.93 1017.89 1018.05 1018.08 1018.32 1017.95 1016.41 1015.11 1015.12 1015.08 1015.08 1015.41 1015.47 1015.71 1015.92 1015.98 1016.13 1016.02 1016.05 1016.04 1015.46 1015.00 1014.59 1014.38 1014.35 1014.09 1013.89 1013.88 1013.21 1012.78 1012.80 1013.10 1013.49 1013.86 1014.33
1016.18 1016.07 1016.52 1016.81 1017.47 1017.69 1017.69 1017.73 1017.59 1017.60 1017.55 1017.70 1017.80 1017.95 1018.23 1018.01 1015.64 1015.08 1015.14 1015.22 1015.22 1015.32 1015.32 1015.49 1015.54 1015.70 1015.93 1015.90 1015.91 1015.57 1015.41 1015.16 1014.81 1014.68 1014.52 1014.42 1014.09 1014.05 1012.70 1012.61 1012.71 1013.11 1013.52 1013.66 1013.86
1015.35 1015.62 1015.80 1016.27 1016.47 1017.06 1017.45 1017.36 1017.25 1017.45 1017.34 1017.41 1017.58 1017.79 1017.76 1016.68 1015.63 1015.32 1015.59 1015.49 1015.36 1015.33 1015.28 1015.23 1015.36 1015.80 1015.95 1016.05 1015.84 1015.64 1015.66 1015.27 1015.02 1014.92 1014.78 1014.49 1014.17 1013.72 1012.34 1012.81 1012.87 1013.17 1013.41 1013.56 1013.68
1014.40 1014.92 1014.99 1015.51 1015.92 1016.19 1016.87 1016.89 1017.16 1017.24 1017.26 1017.13 1017.39 1017.89 1016.98 1015.47 1015.49 1015.59 1015.43 1015.68 1015.29 1015.24 1015.25 1015.23 1015.20 1015.76 1016.16 1016.22 1016.09 1016.11 1016.08 1015.75 1014.87 1014.77 1014.72 1014.83 1013.71 1012.95 1012.31 1012.88 1012.79 1012.70 1012.92 1013.03 1013.01
1013.48 1013.96 1014.23 1014.82 1015.15 1015.84 1016.30 1016.33 1016.90 1017.03 1017.18 1017.06 1017.63 1017.69 1016.60 1014.78 1014.94 1015.02 1015.26 1015.70 1015.38 1015.41 1015.42 1015.42 1015.50 1016.00 1016.48 1017.01 1017.31 1016.98 1016.55 1016.08 1015.43 1014.45 1014.38 1014.48 1013.47 1012.72 1012.30 1012.71 1012.73 1012.49 1012.47 1012.56 1012.31
1012.76 1013.01 1013.44 1013.86 1014.45 1015.15 1015.64 1016.02 1016.28 1016.94 1017.06 1017.06 1017.17 1017.57 1015.88 1014.69 1014.20 1014.54 1014.79 1015.38 1015.69 1015.55 1015.92 1016.16 1016.37 1016.55 1016.94 1017.17 1016.70 1017.12 1017.05 1016.29 1015.53 1014.60 1014.55 1014.32 1013.66 1013.11 1012.54 1012.59 1012.44 1012.16 1012.02 1011.90 1011.81
1012.07 1012.24 1012.48 1012.92 1013.66 1014.48 1015.21 1016.32 1016.91 1016.96 1016.45 1015.51 1015.56 1015.12 1014.39 1014.15 1013.99 1014.49 1014.48 1015.28 1015.87 1015.79 1016.21 1016.72 1017.22 1015.90 1015.58 1016.55 1016.77 1016.82 1016.80 1016.54 1015.66 1014.96 1015.00 1014.65 1014.12 1013.69 1012.72 1012.54 1012.40 1011.99 1011.67 1011.28 1011.08
1011.21 1011.67 1011.73 1012.12 1012.78 1013.63 1014.52 1014.49 1014.73 1014.80 1015.60 1015.58 1015.24 1015.21 1014.30 1014.28 1014.26 1014.28 1014.51 1015.19 1015.82 1015.86 1016.21 1017.16 1015.98 1016.24 1016.40 1016.79 1017.03 1017.15 1017.09 1016.67 1016.36 1015.64 1015.40 1014.86 1013.71 1013.07 1012.47 1011.72 1011.39 1011.20 1010.98 1010.72 1010.48
1010.62 1011.08 1011.30 1011.27 1011.92 1012.57 1013.11 1013.79 1014.13 1014.50 1015.24 1014.71 1014.43 1014.64 1014.88 1014.57 1014.40 1014.05 1014.41 1014.56 1015.21 1016.01 1016.07 1016.12 1015.70 1015.26 1016.34 1016.69 1016.97 1017.02 1016.92 1016.80 1016.70 1016.24 1015.52 1015.26 1012.61 1012.42 1011.54 1010.79 1010.60 1010.25 1010.06 1009.79 1009.65
1009.81 1010.11 1010.57 1010.78 1011.21 1011.21 1011.74 1013.35 1013.79 1014.50 1015.16 1013.95 1013.64 1012.85 1014.05 1014.19 1013.99 1013.89 1013.92 1014.31 1015.19 1015.85 1016.55 1016.65 1015.98 1016.18 1016.36 1016.43 1016.68 1016.59 1016.13 1016.56 1016.75 1016.92 1016.56 1015.31 1011.44 1010.78 1010.51 1009.89 1009.61 1009.59 1009.39 1009.10 1008.71
1009.06 1009.32 1009.57 1010.04 1009.02 1009.62 1010.77 1012.53 1013.66 1015.27 1013.79 1011.87 1012.20 1011.61 1012.14 1013.41 1012.95 1013.12 1013.55 1013.98 1014.52 1015.05 1015.99 1015.03 1015.23 1015.88 1016.05 1015.37 1016.15 1015.59 1015.71 1016.16 1016.55 1016.67 1016.59 1015.44 1014.73 1009.67 1009.13 1009.05 1008.50 1008.41 1008.04 1007.72 1007.48
1008.07 1008.40 1008.61 1008.85 1009.31 1008.54 1010.09 1011.67 1013.48 1013.65 1011.15 1011.55 1011.35 1011.53 1012.40 1012.66 1013.01 1013.33 1013.69 1014.25 1014.66 1015.07 1015.28 1014.78 1014.86 1014.99 1014.81 1014.98 1015.17 1015.36 1015.83 1016.10 1016.30 1016.67 1016.22 1013.33 1014.41 1009.12 1009.28 1008.37 1007.75 1007.43 1007.19 1006.73 1006.45
1007.02 1007.30 1007.70 1008.32 1008.43 1007.77 1009.32 1010.70 1011.32 1009.93 1009.86 1011.41 1011.19 1011.51 1011.99 1012.48 1013.21 1013.38 1013.91 1014.25 1014.48 1015.31 1015.11 1015.06 1015.02 1014.92 1014.56 1014.71 1014.82 1015.30 1015.87 1016.37 1016.51 1016.53 1014.11 1012.92 1013.67 1009.05 1008.43 1007.53 1007.51 1007.04 1006.81 1006.43 1006.06
1005.89 1006.40 1006.34 1006.93 1007.89 1006.56 1007.96 1009.12 1008.28 1008.07 1008.61 1009.15 1010.30 1011.55 1012.16 1012.61 1012.99 1013.57 1013.99 1014.34 1014.57 1014.92 1014.71 1015.04 1014.95 1014.35 1013.73 1014.13 1014.01 1014.39 1014.67 1014.56 1014.69 1014.66 1013.33 1012.83 1011.69 1007.19 1007.90 1007.06 1007.01 1006.53 1006.30 1006.11 1005.89
1005.07 1005.43 1005.56 1005.55 1006.32 1005.41 1005.87 1006.03 1006.28 1006.94 1006.92 1008.15 1010.18 1011.23 1012.14 1012.41 1012.59 1013.51 1014.06 1014.06 1013.86 1014.16 1014.41 1014.31 1014.24 1013.14 1012.91 1012.81 1013.60 1013.81 1014.17 1013.19 1014.15 1013.99 1013.65 1011.97 1009.39 1007.94 1007.58 1007.20 1006.65 1006.31 1006.09 1005.96 1005.45
1004.40 1004.66 1003.84 1004.35 1005.33 1004.41 1004.71 1004.93 1005.89 1005.57 1005.91 1006.75 1008.29 1010.37 1011.32 1011.90 1012.54 1013.33 1013.68 1013.28 1013.24 1013.21 1013.43 1013.68 1013.76 1013.04 1012.53 1012.88 1013.17 1012.67 1012.98 1013.96 1014.19 1014.04 1013.33 1011.31 1009.61 1008.29 1007.45 1007.21 1006.73 1006.27 1005.68 1005.23 1005.14
1003.84 1003.37 1001.82 1002.75 1003.96 1003.69 1002.61 1004.05 1004.49 1004.46 1004.72 1005.97 1006.87 1009.59 1010.47 1011.58 1012.12 1012.74 1012.92 1012.51 1012.29 1012.42 1013.12 1013.52 1013.87 1013.63 1013.13 1012.85 1012.66 1012.96 1013.03 1013.16 1013.08 1013.12 1012.27 1011.06 1008.73 1007.63 1007.27 1006.86 1006.45 1005.93 1005.74 1005.62 1005.17
1003.18 1002.51 1001.25 1001.95 1002.27 1002.32 1002.32 1003.37 1003.57 1004.15 1004.66 1005.44 1006.37 1008.04 1009.74 1011.05 1012.06 1012.46 1012.48 1011.75 1011.43 1012.03 1013.06 1013.12 1013.66 1013.83 1013.47 1012.74 1012.59 1012.51 1012.43 1012.66 1012.62 1012.10 1011.36 1010.41 1007.82 1006.59 1006.49 1006.29 1006.14 1006.30 1005.55 1005.42 1005.41
1002.04 1000.90 1000.22 1000.74 1000.89 1001.34 1002.15 1002.84 1003.42 1003.86 1004.93 1005.84 1006.80 1007.30 1009.03 1010.79 1012.01 1012.09 1011.79 1011.41 1011.48 1011.83 1012.21 1012.79 1013.61 1014.15 1013.77 1013.48 1012.87 1012.74 1012.32 1012.35 1012.23 1012.21 1011.35 1010.58 1008.29 1007.72 1007.21 1006.60 1006.14 1006.22 1005.84 1005.31 1005.32
1001.11 1000.45 999.89 999.79 1000.39 1000.69 1001.22 1002.33 1003.63 1004.26 1004.92 1005.73 1006.65 1007.47 1009.38 1010.82 1010.93 1011.83 1011.94 1011.66 1011.39 1011.58 1011.88 1012.57 1013.55 1014.23 1014.05 1013.48 1012.68 1012.63 1012.04 1011.91 1012.00 1011.84 1011.19 1010.28 1009.38 1008.00 1007.85 1007.29 1006.71 1005.84 1005.97 1005.74 1005.53
1000.65 999.43 998.37 998.55 999.64 1000.58 1000.80 1001.91 1003.02 1004.67 1005.04 1005.70 1007.32 1008.14 1009.09 1010.90 1011.35 1011.45 1011.68 1011.97 1011.96 1011.81 1012.12 1012.75 1013.78 1014.04 1014.10 1013.84 1013.41 1012.73 1012.33 1012.14 1012.13 1011.60 1011.48 1010.32 1009.88 1008.53 1007.77 1007.39 1006.69 1006.53 1006.26 1006.04 1005.86
999.87 999.33 998.25 998.70 999.25 999.85 1000.30 1001.88 1002.54 1003.99 1004.91 1006.19 1006.97 1008.39 1009.03 1009.71 1009.73 1010.45 1010.87 1011.52 1011.71 1012.34 1012.57 1012.79 1013.45 1014.12 1014.44 1013.70 1013.46 1012.90 1012.45 1011.61 1011.41 1011.04 1010.80 1010.02 1009.29 1007.26 1006.66 1007.27 1006.83 1006.30 1006.24 1006.16 1006.70
999.13 998.88 998.03 998.47 999.22 999.72 1000.41 1001.43 1002.58 1003.73 1005.19 1005.53 1006.87 1008.14 1008.87 1008.31 1009.05 1009.63 1010.10 1010.79 1011.18 1011.74 1012.59 1013.33 1013.97 1014.94 1015.31 1015.15 1014.51 1013.55 1011.60 1011.14 1010.60 1010.26 1009.79 1009.86 1008.17 1006.17 1007.15 1006.65 1006.40 1006.38 1006.46 1006.50 1007.09
Wind_Speed
11 10 7 7 8 8 7 7 6 4 4 5 7 9 11 12 11 2 5 5 4 1 1 1 0 2 2 1 4 4 3 4 5 6 5 5 3 4 3 4 4 3 3 3 10
15 14 10 8 6 8 9 7 6 5 2 4 7 8 10 13 4 8 10 7 4 3 3 5 5 3 1 3 2 5 5 10 7 4 2 3 5 5 3 1 2 3 4 5 9
17 16 12 12 9 9 10 10 7 5 4 2 5 8 10 8 4 7 2 9 4 5 1 0 3 5 3 3 4 5 7 6 5 4 4 3 7 4 2 3 4 6 6 6 5
17 16 15 13 11 14 11 8 10 8 6 5 4 6 11 1 6 2 2 1 2 6 4 3 3 5 6 6 6 4 8 5 3 2 2 2 1 5 3 4 3 5 11 8 10
18 15 15 14 14 15 15 9 9 10 8 6 5 2 4 3 8 3 4 4 3 5 5 4 4 5 6 6 2 3 4 5 7 8 4 2 6 6 9 10 6 5 8 13 10
21 20 18 16 15 16 17 10 6 9 9 8 6 2 2 6 5 5 3 4 1 2 4 5 6 4 3 4 7 3 6 7 5 6 4 5 5 6 9 4 5 7 9 10 13
22 21 20 19 18 16 18 10 5 6 11 11 9 3 4 13 3 6 6 4 3 2 3 3 3 2 0 3 2 3 4 5 5 4 6 4 8 12 15 5 10 10 8 9 12
22 22 21 20 19 18 16 13 10 7 5 10 9 2 8 6 8 8 7 6 3 2 3 1 4 5 3 3 5 3 3 3 3 10 6 8 10 10 10 8 13 10 9 9 11
21 22 21 21 20 18 16 12 12 9 5 5 3 4 8 6 7 10 6 5 1 0 2 1 3 4 3 5 4 3 3 4 6 11 8 10 5 11 9 10 11 9 9 9 10
20 21 22 22 21 20 17 15 12 9 7 2 4 3 4 6 3 7 7 7 3 3 2 2 3 4 2 5 11 7 5 3 5 2 6 7 13 9 7 9 14 13 10 10 10
17 22 22 22 23 22 15 3 3 4 9 8 7 4 3 15 3 4 6 7 3 3 7 3 3 16 18 8 2 4 5 5 3 5 4 7 14 10 16 8 9 10 10 10 10
15 16 22 23 25 25 13 11 8 5 4 15 17 15 11 4 3 6 13 9 10 13 10 6 21 7 6 7 6 6 4 6 4 8 3 8 15 11 13 11 16 18 17 12 8
22 15 15 24 26 21 17 22 5 3 2 6 22 13 7 7 5 9 16 6 13 17 19 19 3 17 12 6 9 7 13 7 7 4 8 7 23 13 9 11 11 10 12 11 12
17 20 18 15 23 16 18 17 7 6 5 7 11 13 7 3 7 7 12 7 7 18 17 14 16 5 4 12 8 12 9 8 6 4 5 7 18 17 7 18 14 14 13 15 17
19 20 22 14 9 19 15 16 12 3 7 8 10 6 15 13 9 9 6 4 10 10 10 11 8 15 17 12 11 7 4 8 7 6 2 11 7 7 8 14 18 14 17 18 19
25 22 22 13 12 15 16 17 9 8 10 5 8 11 12 17 4 4 6 3 5 8 5 8 3 8 9 8 17 4 4 1 2 4 10 19 13 4 9 10 7 10 15 18 18
24 25 19 9 10 18 17 13 12 12 10 8 10 12 17 17 21 5 6 17 10 10 13 7 10 3 2 4 5 6 5 2 2 7 14 10 10 22 9 13 12 10 9 12 13
22 24 17 11 9 22 17 11 16 14 9 8 11 15 12 9 16 19 8 13 15 6 6 10 5 13 9 11 7 13 16 8 10 8 9 8 11 17 9 18 14 9 14 10 10
22 11 9 7 9 16 14 18 15 21 11 13 13 17 9 7 7 15 7 9 16 13 8 7 7 4 6 12 15 7 10 21 4 3 3 5 11 12 7 14 17 19 16 11 13
4 9 8 11 18 15 15 15 8 10 11 16 8 6 10 16 6 14 13 7 7 21 7 3 2 5 5 5 5 11 7 4 6 12 15 6 9 9 5 10 15 18 22 19 10
5 6 6 15 16 7 21 11 7 5 10 10 8 7 8 9 8 9 13 1 13 9 17 6 3 4 4 6 11 5 11 7 3 8 9 12 12 9 14 12 11 11 9 12 16
3 9 9 16 11 8 12 13 6 6 4 5 7 7 10 10 7 5 10 8 8 7 10 10 5 10 17 6 2 9 12 16 13 14 9 17 19 12 5 7 3 8 9 6 9
5 2 8 12 14 10 8 7 5 9 5 6 4 6 5 7 6 6 7 6 8 8 7 6 3 2 6 6 5 6 10 7 11 13 19 17 15 7 13 25 20 10 10 7 8
3 5 4 9 7 13 16 13 8 4 6 5 7 8 7 4 3 7 6 1 5 6 9 4 5 7 8 4 1 5 7 8 12 11 15 18 22 30 13 14 13 14 8 9 4
5 4 4 11 8 15 21 15 19 7 4 5 5 7 9 5 3 5 2 2 1 8 4 7 5 3 11 9 6 4 5 6 7 11 9 17 16 20 15 18 24 22 7 9 7
2 2 1 7 15 21 12 17 21 7 9 8 8 4 5 9 9 8 8 5 5 3 5 4 7 4 5 10 10 5 12 13 15 14 13 18 17 21 24 9 11 9 8 6 3
3 3 2 17 14 15 7 18 19 14 3 8 12 7 7 12 6 6 5 5 5 9 7 8 4 4 8 2 2 4 14 12 7 9 11 11 19 20 8 13 13 4 5 6 7
Wind_Direction
283 284 306 288 275 270 274 289 270 280 316 319 323 328 329 335 320 273 255 227 182 193 119 14 107 265 102 227 175 123 85 212 214 154 227 332 350 352 320 112 46 25 137 278 143
270 273 276 289 321 301 260 265 264 254 271 300 317 326 330 336 295 248 235 227 194 162 158 173 181 155 141 212 221 128 154 213 212 184 93 352 19 328 348 102 74 32 17 84 126
259 265 265 273 291 295 299 242 250 240 231 256 312 325 331 337 325 254 346 185 178 161 179 169 195 144 183 178 212 186 201 200 227 113 70 335 331 318 323 264 205 187 172 163 155
254 243 260 264 277 287 281 283 240 232 224 239 265 313 322 296 234 302 220 202 88 155 138 187 169 170 179 201 212 171 241 238 244 114 30 246 290 313 229 234 34 316 184 170 181
237 239 237 243 264 271 276 266 260 230 224 223 243 303 348 216 244 283 270 290 108 122 162 172 169 161 184 201 191 233 246 205 234 275 235 272 238 229 257 253 272 260 169 191 194
238 224 218 220 238 257 265 257 263 239 224 221 215 175 142 227 268 312 226 290 274 199 182 174 194 195 243 227 170 199 236 250 276 262 267 237 253 151 256 249 259 177 210 206 201
242 236 225 220 212 234 251 237 260 284 237 222 214 175 225 234 254 325 347 308 253 272 235 205 160 163 132 294 350 270 276 280 219 220 247 193 274 216 248 251 265 258 238 226 230
240 236 228 220 217 210 223 236 242 252 287 226 214 144 244 243 231 263 263 310 299 161 154 204 156 150 188 312 358 216 172 233 226 178 238 133 257 240 242 197 251 255 249 240 231
243 237 232 227 217 214 218 211 234 253 249 277 188 185 255 280 206 227 169 202 255 8 43 29 105 158 110 112 350 327 205 194 294 197 189 195 235 249 222 188 232 239 246 249 251
256 239 231 224 211 207 207 209 207 243 252 304 231 189 246 228 197 172 166 176 198 159 87 90 72 151 156 145 207 200 207 235 201 222 214 233 253 282 286 199 226 241 238 249 237
289 247 231 222 210 205 192 194 153 260 209 211 209 227 275 221 16 184 151 131 193 203 163 197 166 213 203 213 208 158 181 197 236 276 334 247 261 254 265 241 251 244 239 243 255
253 307 243 223 216 201 185 191 180 166 194 227 257 237 252 85 181 210 144 151 186 200 196 185 232 195 162 184 212 231 236 246 283 273 211 274 267 248 246 250 238 240 245 248 250
261 255 294 230 209 197 194 200 132 133 223 222 217 226 239 220 243 205 168 145 186 196 200 206 265 189 188 187 201 218 226 230 229 329 287 325 283 257 243 241 239 237 236 239 233
256 263 264 280 205 193 196 187 176 80 237 224 188 218 215 175 221 219 182 147 174 199 200 232 242 247 166 221 192 233 190 199 206 176 237 167 278 257 227 243 235 234 231 231 244
252 252 246 228 209 198 182 176 159 89 235 186 169 186 166 183 137 210 169 158 176 167 169 220 167 197 226 213 183 227 176 188 186 193 232 248 280 295 209 246 245 232 232 232 231
249 246 242 248 261 187 161 162 141 197 203 152 140 166 158 195 194 105 146 107 163 190 220 213 162 169 201 182 205 134 173 258 178 192 238 235 216 208 226 231 231 230 230 233 229
253 245 245 198 257 161 158 155 199 211 151 162 167 165 180 192 209 144 152 189 180 198 221 205 233 235 148 165 191 165 108 231 253 209 241 174 201 247 292 288 275 261 256 259 254
250 251 243 225 224 164 166 178 216 162 181 150 148 149 172 151 210 203 164 189 203 209 203 195 269 185 194 197 188 193 187 175 198 203 250 134 220 240 208 242 278 271 273 268 273
250 250 224 210 200 180 174 199 197 160 157 142 121 158 176 182 155 190 200 189 199 198 192 169 240 203 175 190 179 197 194 223 351 95 286 204 267 279 261 273 285 279 273 256 255
225 243 210 183 188 205 186 190 166 187 130 133 127 151 168 182 138 173 172 187 199 209 193 220 247 206 222 124 224 201 182 146 198 236 243 238 259 247 305 265 258 259 266 269 253
206 236 187 172 175 208 195 175 155 191 145 155 120 138 159 159 161 176 180 251 193 196 201 208 113 267 54 186 192 194 231 240 214 217 243 258 255 232 246 241 235 256 278 270 271
178 236 176 156 190 190 191 149 144 138 102 84 101 110 154 153 144 155 185 199 178 142 172 201 190 237 238 245 74 215 212 220 226 221 238 245 249 292 310 280 277 274 284 272 263
221 186 178 161 191 176 140 122 131 139 124 133 119 118 111 144 118 167 185 192 150 154 178 179 217 216 312 354 328 193 229 232 233 247 243 252 264 264 252 273 272 268 277 308 315
256 206 243 170 208 161 138 135 110 54 93 102 110 88 104 115 4 168 164 177 135 152 171 140 183 211 254 281 151 176 210 217 218 238 249 246 265 269 281 288 292 295 269 274 238
217 234 198 173 177 165 157 154 133 119 68 98 37 151 142 108 83 159 165 135 174 175 145 145 211 224 253 237 246 235 190 195 185 230 234 266 256 269 261 255 263 281 283 257 242
214 216 322 130 139 155 154 167 150 123 134 179 142 135 125 151 177 172 130 157 176 138 157 179 236 147 272 215 201 218 247 223 212 227 228 240 252 244 253 268 278 250 241 254 116
158 222 129 157 144 153 157 153 157 134 356 145 128 117 164 203 149 143 137 131 160 157 173 167 162 151 248 252 168 311 230 219 228 219 214 226 232 260 252 241 243 264 221 153 113